Retour au catalogue

CZ-6A R/B

ActifPO
NORAD 63605·ROCKET BODY·🇨🇳 China

Lancé Apr 18, 2025 depuis Taiyuan Satellite Launch Center

Loading…

Prochains Passages (prochaines 24 heures)

TLE

FraisSource: Space-Track

Époque: Sep 14, 2026, 09:39 UTC

1 63605U 25078G   26257.40241326  .00000226  00000-0  19530-3 0  9997
2 63605  99.6657 296.2360 0106422 172.6995 187.5744 13.94812401 71553

Suivez CZ-6A R/B en temps réel avec AllMySat

Download on the App Store